Time,TemperatureF,DewpointF,PressureIn,WindDirection,WindDirectionDegrees,WindSpeedMPH,WindSpeedGustMPH,Humidity,HourlyPrecipIn,Conditions,Clouds,dailyrainin,SoftwareType,DateUTC
2013-03-18 00:02:00,44.0,44.0,-100.00,ENE,73,1.0,3.0,99,-99.99,,,-99.99,,2013-03-18 07:02:00,
2013-03-18 00:12:00,45.0,44.0,-100.00,SSW,211,3.0,5.0,98,-99.99,,,-99.99,,2013-03-18 07:12:00,
2013-03-18 00:22:00,45.0,44.0,-100.00,SSW,212,5.0,7.0,97,-99.99,,,-99.99,,2013-03-18 07:22:00,
2013-03-18 00:32:00,46.0,44.0,-100.00,SW,226,3.0,6.0,92,-99.99,,,-99.99,,2013-03-18 07:32:00,
2013-03-18 00:42:00,45.0,43.0,-100.00,SW,217,2.0,4.0,93,-99.99,,,-99.99,,2013-03-18 07:42:00,
2013-03-18 00:52:00,45.0,43.0,-100.00,WSW,255,2.0,5.0,92,-99.99,,,-99.99,,2013-03-18 07:52:00,
2013-03-18 01:02:00,45.0,43.0,-100.00,NNE,22,1.0,2.0,93,-99.99,,,-99.99,,2013-03-18 08:02:00,
2013-03-18 01:12:00,44.0,43.0,-100.00,East,87,0.0,1.0,95,-99.99,,,-99.99,,2013-03-18 08:12:00,
2013-03-18 01:22:00,44.0,43.0,-100.00,SSE,147,1.0,2.0,97,-99.99,,,-99.99,,2013-03-18 08:22:00,
2013-03-18 01:32:00,44.0,43.0,-100.00,SSE,147,1.0,2.0,97,-99.99,,,-99.99,,2013-03-18 08:32:00,
2013-03-18 01:42:00,45.0,43.0,-100.00,East,95,2.0,3.0,91,-99.99,,,-99.99,,2013-03-18 08:42:00,
2013-03-18 01:52:00,46.0,42.0,-100.00,ESE,118,1.0,2.0,85,-99.99,,,-99.99,,2013-03-18 08:52:00,
2013-03-18 02:02:00,45.0,41.0,-100.00,ENE,69,1.0,2.0,86,-99.99,,,-99.99,,2013-03-18 09:02:00,
2013-03-18 02:12:00,44.0,41.0,-100.00,ENE,59,2.0,3.0,88,-99.99,,,-99.99,,2013-03-18 09:12:00,
2013-03-18 02:22:00,45.0,40.0,-100.00,East,91,2.0,3.0,84,-99.99,,,-99.99,,2013-03-18 09:22:00,
2013-03-18 02:32:00,45.0,40.0,-100.00,ENE,78,3.0,5.0,83,-99.99,,,-99.99,,2013-03-18 09:32:00,
2013-03-18 02:42:00,44.0,39.0,-100.00,ENE,69,2.0,4.0,81,-99.99,,,-99.99,,2013-03-18 09:42:00,
2013-03-18 02:53:00,43.0,39.0,-100.00,ENE,72,1.0,1.0,85,-99.99,,,-99.99,,2013-03-18 09:53:00,
2013-03-18 03:03:00,44.0,39.0,-100.00,East,86,0.0,2.0,83,-99.99,,,-99.99,,2013-03-18 10:03:00,
2013-03-18 03:12:00,44.0,38.0,-100.00,North,-999,0.0,0.0,80,-99.99,,,-99.99,,2013-03-18 10:12:00,
2013-03-18 03:23:00,44.0,38.0,-100.00,SE,132,0.0,1.0,79,-99.99,,,-99.99,,2013-03-18 10:23:00,
2013-03-18 03:33:00,45.0,37.0,-100.00,SE,136,0.0,1.0,72,-99.99,,,-99.99,,2013-03-18 10:33:00,
2013-03-18 03:42:00,44.0,36.0,-100.00,South,182,0.0,1.0,74,-99.99,,,-99.99,,2013-03-18 10:42:00,
2013-03-18 03:52:00,43.0,35.0,-100.00,ESE,120,0.0,2.0,73,-99.99,,,-99.99,,2013-03-18 10:52:00,
2013-03-18 04:02:00,45.0,36.0,-100.00,South,190,0.0,1.0,70,-99.99,,,-99.99,,2013-03-18 11:02:00,
2013-03-18 04:12:00,43.0,36.0,-100.00,North,-999,0.0,0.0,76,-99.99,,,-99.99,,2013-03-18 11:12:00,
2013-03-18 04:22:00,43.0,36.0,-100.00,North,-999,0.0,0.0,76,-99.99,,,-99.99,,2013-03-18 11:22:00,
2013-03-18 04:31:00,44.0,39.0,-100.00,SSW,195,0.0,1.0,82,-99.99,,,-99.99,,2013-03-18 11:31:00,
2013-03-18 04:42:00,44.0,39.0,-100.00,SW,232,1.0,2.0,84,-99.99,,,-99.99,,2013-03-18 11:42:00,
2013-03-18 04:52:00,43.0,40.0,-100.00,SSW,209,0.0,1.0,88,-99.99,,,-99.99,,2013-03-18 11:52:00,
2013-03-18 05:01:00,43.0,40.0,-100.00,SSW,209,0.0,1.0,88,-99.99,,,-99.99,,2013-03-18 12:01:00,
2013-03-18 05:12:00,44.0,42.0,-100.00,SSW,204,3.0,5.0,91,-99.99,,,-99.99,,2013-03-18 12:12:00,
2013-03-18 05:22:00,44.0,42.0,-100.00,SSW,204,3.0,5.0,91,-99.99,,,-99.99,,2013-03-18 12:22:00,
2013-03-18 05:32:00,45.0,41.0,-100.00,SW,216,3.0,5.0,86,-99.99,,,-99.99,,2013-03-18 12:32:00,
2013-03-18 05:42:00,44.0,41.0,-100.00,SSW,208,1.0,3.0,89,-99.99,,,-99.99,,2013-03-18 12:42:00,
2013-03-18 05:52:00,44.0,41.0,-100.00,SSW,194,2.0,5.0,90,-99.99,,,-99.99,,2013-03-18 12:52:00,
2013-03-18 06:02:00,45.0,41.0,-100.00,SSW,197,3.0,5.0,87,-99.99,,,-99.99,,2013-03-18 13:02:00,
2013-03-18 06:12:00,45.0,42.0,-100.00,SSW,196,2.0,4.0,88,-99.99,,,-99.99,,2013-03-18 13:12:00,
2013-03-18 06:22:00,44.0,41.0,-100.00,ENE,72,0.0,1.0,89,-99.99,,,-99.99,,2013-03-18 13:22:00,
2013-03-18 06:32:00,44.0,42.0,-100.00,ESE,108,3.0,4.0,91,-99.99,,,-99.99,,2013-03-18 13:32:00,
2013-03-18 06:42:00,44.0,42.0,-100.00,ESE,108,3.0,4.0,91,-99.99,,,-99.99,,2013-03-18 13:42:00,
2013-03-18 06:52:00,43.0,41.0,-100.00,SSE,158,0.0,1.0,92,-99.99,,,-99.99,,2013-03-18 13:52:00,
2013-03-18 07:02:00,42.0,40.0,-100.00,South,172,0.0,1.0,94,-99.99,,,-99.99,,2013-03-18 14:02:00,
2013-03-18 07:12:00,42.0,40.0,-100.00,SSE,159,0.0,2.0,94,-99.99,,,-99.99,,2013-03-18 14:12:00,
2013-03-18 07:22:00,43.0,41.0,-100.00,SE,129,2.0,4.0,91,-99.99,,,-99.99,,2013-03-18 14:22:00,
2013-03-18 07:32:00,42.0,39.0,-100.00,North,-999,0.0,0.0,90,-99.99,,,-99.99,,2013-03-18 14:32:00,
2013-03-18 07:42:00,41.0,39.0,-100.00,ESE,112,2.0,5.0,93,-99.99,,,-99.99,,2013-03-18 14:42:00,
2013-03-18 07:52:00,42.0,40.0,-100.00,SE,137,2.0,4.0,91,-99.99,,,-99.99,,2013-03-18 14:52:00,
2013-03-18 08:02:00,46.0,40.0,-100.00,SE,140,1.0,4.0,80,-99.99,,,-99.99,,2013-03-18 15:02:00,
2013-03-18 08:12:00,45.0,38.0,-100.00,SE,141,0.0,1.0,77,-99.99,,,-99.99,,2013-03-18 15:12:00,
2013-03-18 08:22:00,45.0,38.0,-100.00,SE,141,0.0,1.0,77,-99.99,,,-99.99,,2013-03-18 15:22:00,
2013-03-18 08:33:00,48.0,42.0,-100.00,ENE,63,0.0,1.0,79,-99.99,,,-99.99,,2013-03-18 15:33:00,
2013-03-18 08:42:00,50.0,42.0,-100.00,ENE,63,0.0,1.0,75,-99.99,,,-99.99,,2013-03-18 15:42:00,
2013-03-18 08:52:00,51.0,42.0,-100.00,North,-999,0.0,0.0,70,-99.99,,,-99.99,,2013-03-18 15:52:00,
2013-03-18 09:02:00,53.0,40.0,-100.00,East,94,0.0,1.0,62,-99.99,,,-99.99,,2013-03-18 16:02:00,
2013-03-18 09:12:00,54.0,37.0,-100.00,SW,218,3.0,6.0,53,-99.99,,,-99.99,,2013-03-18 16:12:00,
2013-03-18 09:22:00,55.0,36.0,-100.00,SW,224,5.0,9.0,48,-99.99,,,-99.99,,2013-03-18 16:22:00,
2013-03-18 09:32:00,56.0,34.0,-100.00,WSW,243,4.0,8.0,43,-99.99,,,-99.99,,2013-03-18 16:32:00,
2013-03-18 09:42:00,57.0,33.0,-100.00,WSW,251,5.0,9.0,40,-99.99,,,-99.99,,2013-03-18 16:42:00,
2013-03-18 09:52:00,57.0,33.0,-100.00,West,259,5.0,9.0,40,-99.99,,,-99.99,,2013-03-18 16:52:00,
2013-03-18 10:02:00,58.0,32.0,-100.00,West,261,5.0,9.0,37,-99.99,,,-99.99,,2013-03-18 17:02:00,
2013-03-18 10:12:00,58.0,32.0,-100.00,West,261,4.0,8.0,37,-99.99,,,-99.99,,2013-03-18 17:12:00,
2013-03-18 10:21:00,59.0,33.0,-100.00,West,271,3.0,7.0,37,-99.99,,,-99.99,,2013-03-18 17:21:00,
2013-03-18 10:32:00,59.0,30.0,-100.00,West,259,5.0,10.0,33,-99.99,,,-99.99,,2013-03-18 17:32:00,
2013-03-18 10:42:00,60.0,27.0,-100.00,WSW,248,5.0,10.0,28,-99.99,,,-99.99,,2013-03-18 17:42:00,
2013-03-18 10:52:00,60.0,23.0,-100.00,SW,236,5.0,10.0,24,-99.99,,,-99.99,,2013-03-18 17:52:00,
2013-03-18 11:02:00,61.0,24.0,-100.00,SW,233,5.0,11.0,24,-99.99,,,-99.99,,2013-03-18 18:02:00,
2013-03-18 11:12:00,62.0,25.0,-100.00,West,259,4.0,9.0,24,-99.99,,,-99.99,,2013-03-18 18:12:00,
2013-03-18 11:22:00,62.0,25.0,-100.00,WSW,248,5.0,8.0,24,-99.99,,,-99.99,,2013-03-18 18:22:00,
2013-03-18 11:32:00,64.0,25.0,-100.00,WSW,246,3.0,6.0,23,-99.99,,,-99.99,,2013-03-18 18:32:00,
2013-03-18 11:42:00,64.0,24.0,-100.00,West,273,5.0,10.0,22,-99.99,,,-99.99,,2013-03-18 18:42:00,
2013-03-18 11:52:00,64.0,25.0,-100.00,West,275,6.0,12.0,23,-99.99,,,-99.99,,2013-03-18 18:52:00,
2013-03-18 12:02:00,64.0,25.0,-100.00,West,275,6.0,12.0,23,-99.99,,,-99.99,,2013-03-18 19:02:00,
2013-03-18 12:12:00,64.0,26.0,-100.00,West,265,6.0,13.0,24,-99.99,,,-99.99,,2013-03-18 19:12:00,
2013-03-18 12:22:00,64.0,27.0,-100.00,West,261,7.0,13.0,25,-99.99,,,-99.99,,2013-03-18 19:22:00,
2013-03-18 12:32:00,65.0,28.0,-100.00,West,261,8.0,15.0,25,-99.99,,,-99.99,,2013-03-18 19:32:00,
2013-03-18 12:42:00,65.0,27.0,-100.00,West,266,8.0,17.0,24,-99.99,,,-99.99,,2013-03-18 19:42:00,
2013-03-18 12:52:00,65.0,30.0,-100.00,WSW,256,7.0,14.0,27,-99.99,,,-99.99,,2013-03-18 19:52:00,
2013-03-18 13:02:00,64.0,31.0,-100.00,West,270,5.0,12.0,29,-99.99,,,-99.99,,2013-03-18 20:02:00,
2013-03-18 13:12:00,66.0,32.0,-100.00,SW,235,6.0,12.0,28,-99.99,,,-99.99,,2013-03-18 20:12:00,
2013-03-18 13:22:00,67.0,33.0,-100.00,WSW,249,4.0,12.0,28,-99.99,,,-99.99,,2013-03-18 20:22:00,
2013-03-18 13:32:00,66.0,32.0,-100.00,West,278,7.0,12.0,28,-99.99,,,-99.99,,2013-03-18 20:32:00,
2013-03-18 13:42:00,66.0,32.0,-100.00,West,280,7.0,12.0,28,-99.99,,,-99.99,,2013-03-18 20:42:00,
2013-03-18 13:52:00,66.0,32.0,-100.00,West,270,7.0,14.0,28,-99.99,,,-99.99,,2013-03-18 20:52:00,
2013-03-18 14:02:00,66.0,32.0,-100.00,West,270,7.0,14.0,28,-99.99,,,-99.99,,2013-03-18 21:02:00,
2013-03-18 14:11:00,66.0,32.0,-100.00,WSW,257,7.0,13.0,28,-99.99,,,-99.99,,2013-03-18 21:11:00,
2013-03-18 14:22:00,66.0,31.0,-100.00,West,271,7.0,14.0,27,-99.99,,,-99.99,,2013-03-18 21:22:00,
2013-03-18 14:32:00,67.0,31.0,-100.00,West,261,7.0,12.0,26,-99.99,,,-99.99,,2013-03-18 21:32:00,
2013-03-18 14:42:00,67.0,31.0,-100.00,West,268,7.0,13.0,26,-99.99,,,-99.99,,2013-03-18 21:42:00,
2013-03-18 14:52:00,67.0,32.0,-100.00,West,276,7.0,14.0,27,-99.99,,,-99.99,,2013-03-18 21:52:00,
2013-03-18 15:03:00,66.0,32.0,-100.00,West,268,7.0,11.0,28,-99.99,,,-99.99,,2013-03-18 22:03:00,
2013-03-18 15:12:00,66.0,33.0,-100.00,WSW,258,8.0,13.0,29,-99.99,,,-99.99,,2013-03-18 22:12:00,
2013-03-18 15:22:00,66.0,34.0,-100.00,WSW,253,8.0,14.0,30,-99.99,,,-99.99,,2013-03-18 22:22:00,
2013-03-18 15:32:00,66.0,34.0,-100.00,West,259,8.0,15.0,30,-99.99,,,-99.99,,2013-03-18 22:32:00,
2013-03-18 15:42:00,66.0,37.0,-100.00,WSW,258,8.0,15.0,34,-99.99,,,-99.99,,2013-03-18 22:42:00,
2013-03-18 15:52:00,65.0,39.0,-100.00,West,263,8.0,15.0,38,-99.99,,,-99.99,,2013-03-18 22:52:00,
2013-03-18 16:02:00,65.0,39.0,-100.00,West,262,6.0,12.0,39,-99.99,,,-99.99,,2013-03-18 23:02:00,
2013-03-18 16:22:00,65.0,41.0,-100.00,WSW,258,7.0,15.0,41,-99.99,,,-99.99,,2013-03-18 23:22:00,
2013-03-18 16:32:00,65.0,41.0,-100.00,WSW,253,9.0,16.0,42,-99.99,,,-99.99,,2013-03-18 23:32:00,
2013-03-18 16:42:00,65.0,42.0,-100.00,WSW,257,8.0,16.0,43,-99.99,,,-99.99,,2013-03-18 23:42:00,
2013-03-18 16:52:00,64.0,42.0,-100.00,West,262,9.0,15.0,45,-99.99,,,-99.99,,2013-03-18 23:52:00,
2013-03-18 17:02:00,64.0,42.0,-100.00,West,262,9.0,15.0,45,-99.99,,,-99.99,,2013-03-19 00:02:00,
2013-03-18 17:12:00,62.0,44.0,-100.00,WSW,258,9.0,16.0,51,-99.99,,,-99.99,,2013-03-19 00:12:00,
2013-03-18 17:22:00,62.0,44.0,-100.00,WSW,249,9.0,16.0,52,-99.99,,,-99.99,,2013-03-19 00:22:00,
2013-03-18 17:32:00,61.0,44.0,-100.00,WSW,253,9.0,15.0,54,-99.99,,,-99.99,,2013-03-19 00:32:00,
2013-03-18 17:42:00,61.0,44.0,-100.00,WSW,253,9.0,15.0,54,-99.99,,,-99.99,,2013-03-19 00:42:00,
2013-03-18 17:52:00,61.0,46.0,-100.00,West,259,8.0,14.0,57,-99.99,,,-99.99,,2013-03-19 00:52:00,
2013-03-18 18:02:00,60.0,45.0,-100.00,West,263,8.0,13.0,58,-99.99,,,-99.99,,2013-03-19 01:02:00,
2013-03-18 18:12:00,59.0,45.0,-100.00,West,264,7.0,13.0,60,-99.99,,,-99.99,,2013-03-19 01:12:00,
2013-03-18 18:22:00,59.0,46.0,-100.00,West,261,8.0,13.0,62,-99.99,,,-99.99,,2013-03-19 01:22:00,
2013-03-18 18:32:00,58.0,46.0,-100.00,WSW,256,7.0,12.0,64,-99.99,,,-99.99,,2013-03-19 01:32:00,
2013-03-18 18:42:00,57.0,46.0,-100.00,WSW,254,7.0,12.0,66,-99.99,,,-99.99,,2013-03-19 01:42:00,
2013-03-18 18:52:00,57.0,47.0,-100.00,WSW,247,5.0,10.0,68,-99.99,,,-99.99,,2013-03-19 01:52:00,
2013-03-18 19:02:00,57.0,47.0,-100.00,WSW,247,5.0,10.0,68,-99.99,,,-99.99,,2013-03-19 02:02:00,
2013-03-18 19:12:00,56.0,47.0,-100.00,WSW,251,5.0,8.0,71,-99.99,,,-99.99,,2013-03-19 02:12:00,
2013-03-18 19:22:00,55.0,47.0,-100.00,West,273,2.0,7.0,73,-99.99,,,-99.99,,2013-03-19 02:22:00,
2013-03-18 19:32:00,55.0,47.0,-100.00,WSW,254,1.0,3.0,74,-99.99,,,-99.99,,2013-03-19 02:32:00,
2013-03-18 19:42:00,54.0,47.0,-100.00,West,264,3.0,5.0,76,-99.99,,,-99.99,,2013-03-19 02:42:00,
2013-03-18 19:52:00,53.0,46.0,-100.00,West,268,2.0,3.0,78,-99.99,,,-99.99,,2013-03-19 02:52:00,
2013-03-18 20:01:00,53.0,47.0,-100.00,NNW,340,1.0,3.0,81,-99.99,,,-99.99,,2013-03-19 03:01:00,
2013-03-18 20:11:00,52.0,47.0,-100.00,West,272,2.0,4.0,83,-99.99,,,-99.99,,2013-03-19 03:11:00,
2013-03-18 20:22:00,51.0,47.0,-100.00,WSW,255,2.0,3.0,86,-99.99,,,-99.99,,2013-03-19 03:22:00,
2013-03-18 20:32:00,51.0,47.0,-100.00,WSW,238,1.0,2.0,87,-99.99,,,-99.99,,2013-03-19 03:32:00,
2013-03-18 20:42:00,51.0,47.0,-100.00,SSW,200,2.0,2.0,87,-99.99,,,-99.99,,2013-03-19 03:42:00,
2013-03-18 20:53:00,50.0,47.0,-100.00,ESE,103,1.0,2.0,88,-99.99,,,-99.99,,2013-03-19 03:53:00,
2013-03-18 21:02:00,50.0,47.0,-100.00,SSW,201,1.0,2.0,89,-99.99,,,-99.99,,2013-03-19 04:02:00,
2013-03-18 21:13:00,50.0,47.0,-100.00,SSW,200,1.0,2.0,89,-99.99,,,-99.99,,2013-03-19 04:13:00,
2013-03-18 21:22:00,50.0,47.0,-100.00,SW,219,1.0,2.0,89,-99.99,,,-99.99,,2013-03-19 04:22:00,
2013-03-18 21:32:00,49.0,46.0,-100.00,SW,220,1.0,2.0,90,-99.99,,,-99.99,,2013-03-19 04:32:00,
2013-03-18 21:42:00,49.0,47.0,-100.00,South,179,0.0,1.0,92,-99.99,,,-99.99,,2013-03-19 04:42:00,
2013-03-18 21:52:00,48.0,46.0,-100.00,SW,220,1.0,3.0,92,-99.99,,,-99.99,,2013-03-19 04:52:00,
2013-03-18 22:02:00,47.0,45.0,-100.00,SW,225,1.0,3.0,94,-99.99,,,-99.99,,2013-03-19 05:02:00,
2013-03-18 22:11:00,47.0,46.0,-100.00,SSW,195,0.0,1.0,96,-99.99,,,-99.99,,2013-03-19 05:11:00,
2013-03-18 22:22:00,47.0,46.0,-100.00,SSW,201,2.0,4.0,97,-99.99,,,-99.99,,2013-03-19 05:22:00,
2013-03-18 22:32:00,47.0,46.0,-100.00,SSW,210,1.0,3.0,96,-99.99,,,-99.99,,2013-03-19 05:32:00,
2013-03-18 22:42:00,47.0,46.0,-100.00,SW,225,3.0,5.0,97,-99.99,,,-99.99,,2013-03-19 05:42:00,
2013-03-18 22:52:00,48.0,47.0,-100.00,SW,233,4.0,5.0,97,-99.99,,,-99.99,,2013-03-19 05:52:00,
2013-03-18 23:02:00,47.0,46.0,-100.00,SW,235,4.0,6.0,97,-99.99,,,-99.99,,2013-03-19 06:02:00,
2013-03-18 23:12:00,47.0,46.0,-100.00,SW,222,4.0,6.0,98,-99.99,,,-99.99,,2013-03-19 06:12:00,
2013-03-18 23:22:00,47.0,47.0,-100.00,SW,225,5.0,7.0,99,-99.99,,,-99.99,,2013-03-19 06:22:00,
2013-03-18 23:32:00,47.0,47.0,-100.00,SW,225,4.0,6.0,100,-99.99,,,-99.99,,2013-03-19 06:32:00,
2013-03-18 23:42:00,47.0,47.0,-100.00,SW,230,3.0,5.0,100,-99.99,,,-99.99,,2013-03-19 06:42:00,
2013-03-18 23:52:00,46.0,46.0,-100.00,SW,229,3.0,5.0,100,-99.99,,,-99.99,,2013-03-19 06:52:00,